Starlink 3121

operational
NORAD ID: 49428 Int'l Des: 2021-104 Owner: SPXS Country: US Constellation: starlink
LEOCIRCULAR

Starlink 3121について

説明を読み込み中...

リアルタイム位置

3D地球を読み込み中...

次回通過

高度履歴

Altitude vs Time

uPlot chart will show altitude changes over time

軌道要素

1 49428U 21104W 25351.11790727 -.00000012 00000-0 17339-4 0 9996
2 49428 53.2159 239.7112 0001382 85.0092 275.1058 15.08835970226179
Epoch: Dec 17, 2025 • Age: 11 hours

現在のステータス

高度 539.6 km
速度 7.59 km/s
衛星直下点 11.61°N, 50.38°W
打ち上げ日 Nov 13, 2021
運用期間 4 years
タイプ internet

技術仕様

分類 Payload
質量 290.00 kg
乾燥質量 270.00 kg
総質量 290.00 kg
長さ 0.20 m
直径 2.80 m
スパン 9.00 m
形状 Box + pan
製造者 SPXS
バスタイプ Starlink
フェーズステータス In Orbit
所有者/国 SPXS/US

大規模コンステレーション

Loading constellations...